Вернуться в каталог

ONEWEB-0615

АктивенСвязьPO
NORAD 54676·PAYLOAD·🇬🇧 United Kingdom

Запущен Dec 8, 2022 с Cape Canaveral Space Force Station

Loading…

Ближайшие Пролёты (ближайшие 24 часа)

TLE

СвежийSource: CelesTrak SupGP

Эпоха: Sep 14, 2026, 15:43 UTC

1 54676C 22166AL  26257.65502732 -.00001043  00000+0 -25286-2 0  2578
2 54676  87.9274 226.1773 0002064  76.0220 317.0539 13.21824688    16

Отслеживайте ONEWEB-0615 в реальном времени с AllMySat

Download on the App Store